This demonstration page uses our WeatherBlox Daily Observations layout. Learn more.

Left ArrowRight Arrow

Hourly Observations for May 28, 2022

Temp ( °F °C ) Dew Point ( °F °C ) Humidity (%) Winds ( mph kmh ) Pressure ( in mb ) Visibility ( mi km ) Precip ( " mm )
12:53 am 00:53 Partly Cloudy 68 20 57 13.9 68 68 SSE 16 26 29.80 1009 10 16 0.00 0.00
1:53 am 01:53 Partly Cloudy 66 18.9 56 13.3 70 70 SSE 16 26 29.80 1009 10 16 0.00 0.00
2:53 am 02:53 Partly Cloudy 65 18.3 57 13.9 76 76 SSE 14 22 29.77 1008 10 16 0.00 0.00
3:37 am 03:37 Cloudy with Thunderstorms 65 18.3 57 13.9 76 76 SW 9 15 29.84 1010 10 16 0.00 0.00
3:53 am 03:53 Cloudy with Thunderstorms 64 17.8 58 14.4 81 81 S 8 13 29.85 1011 5 8 0.02 0.51
4:53 am 04:53 Cloudy 65 18.3 58 14.4 78 78 S 23 37 29.76 1008 10 16 0.06 1.52
5:53 am 05:53 Cloudy 67 19.4 57 13.9 71 71 SSE 15 24 29.76 1008 10 16 0.00 0.00
6:53 am 06:53 Mostly Cloudy 67 19.4 57 13.9 71 71 SSE 15 24 29.75 1008 10 16 0.00 0.00
7:53 am 07:53 Mostly Cloudy 67 19.4 57 13.9 71 71 SSE 21 33 29.74 1007 10 16 0.00 0.00
8:53 am 08:53 Partly Cloudy 71 21.7 57 13.9 61 61 SSE 23 37 29.74 1007 10 16 0.00 0.00
9:53 am 09:53 Partly Cloudy 73 22.8 58 14.4 59 59 SSE 25 41 29.73 1007 10 16 0.00 0.00
10:53 am 10:53 Partly Cloudy 76 24.4 59 15 56 56 S 25 41 29.69 1005 10 16 0.00 0.00
11:53 am 11:53 Partly Cloudy 79 26.1 60 15.6 52 52 S 26 43 29.67 1005 10 16 0.00 0.00
12:53 pm 12:53 Partly Cloudy 81 27.2 62 16.7 53 53 S 26 43 29.64 1004 10 16 0.00 0.00
1:53 pm 13:53 Partly Cloudy 83 28.3 63 17.2 51 51 S 30 48 29.61 1003 10 16 0.00 0.00
2:53 pm 14:53 Mostly Sunny 84 28.9 64 17.8 51 51 S 30 48 29.59 1002 10 16 0.00 0.00
3:53 pm 15:53 Partly Cloudy 86 30 66 18.9 51 51 S 32 52 29.56 1001 10 16 0.00 0.00
4:53 pm 16:53 Partly Cloudy 86 30 68 20 55 55 S 20 31 29.55 1001 10 16 0.00 0.00
5:53 pm 17:53 Partly Cloudy 87 30.6 68 20 53 53 S 25 41 29.52 1000 10 16 0.00 0.00
6:53 pm 18:53 Partly Cloudy 84 28.9 67 19.4 57 57 S 24 39 29.50 999 10 16 0.00 0.00
7:53 pm 19:53 Partly Cloudy 81 27.2 65 18.3 58 58 SSE 18 30 29.51 999 10 16 0.00 0.00
8:53 pm 20:53 Partly Cloudy 78 25.6 65 18.3 64 64 SSE 18 30 29.50 999 10 16 0.00 0.00
9:53 pm 21:53 Partly Cloudy 76 24.4 64 17.8 67 67 SSE 18 30 29.50 999 10 16 0.00 0.00
10:53 pm 22:53 Partly Cloudy 74 23.3 64 17.8 71 71 SSE 20 31 29.51 999 10 16 0.00 0.00
11:53 pm 23:53 Partly Cloudy 74 23.3 64 17.8 71 71 SSE 18 30 29.49 999 10 16 0.00 0.00

Powered by AerisWeather